Weather History for KWVI - March, 2013

Change the Weather History Date:

Tuesday, March 5, 2013

  Actual Average Record
Temperature  
Mean Temperature 48 °F 53 °F  
Max Temperature 53 °F 62 °F 77 °F (2015)
Min Temperature 43 °F 44 °F 35 °F (1999)
Degree Days  
Heating Degree Days 17    
Month to date heating degree days 51  
Since 1 July heating degree days 2224  
Cooling Degree Days 0    
Month to date cooling degree days 0  
Year to date cooling degree days 0  
Moisture  
Dew Point 41 °F    
Average Humidity 78    
Maximum Humidity 93    
Minimum Humidity 63    
Precipitation  
Precipitation 0.04 in - 1.20 in (1951)
Month to date precipitation 0.04  
Year to date precipitation 1.19  
Since 1 July precipitation 12.13  
Sea Level Pressure  
Sea Level Pressure 30.04 in    
Wind  
Wind Speed 5 mph (SSW)    
Max Wind Speed 16 mph    
Max Gust Speed 41 mph    
Visibility 10 miles    
Events Rain    
T = Trace of Precipitation, MM = Missing Value Source: NWS Daily Summary

Daily Weather History Graph

Daily Weather History Graph

Search for Another Location

Airport or City:

Trip Planner

Search our weather history database for the weather conditions in past years. The results will help you decide how hot, cold, wet, or windy it might be!

Date:

Astronomy

Mar. 05, 2013 Rise Set
Actual Time 6:32 AM PST 6:05 PM PST
Civil Twilight 6:06 AM PST 6:31 PM PST
Nautical Twilight 5:36 AM PST 7:01 PM PST
Astronomical Twilight 5:05 AM PST 7:31 PM PST
Moon 1:43 AM PST (3/5) 11:56 AM PST (3/5)
Length of Visible Light 12h 25m
Length of Day
11h 33m
Last Quarter, 39% of the Moon is Illuminated
Mar 5
Last Quarter
Mar 11
New
Mar 19
First Quarter
Mar 27
Full
Apr 2
Last Quarter

Hourly Weather History & Observations

Time (PST) Temp. Windchill Dew Point Humidity Pressure Visibility Wind Dir Wind Speed Gust Speed Precip Events Conditions
12:27 AM 46.4 °F 44.3 °F 42.8 °F 87% 30.09 in 10.0 mi NNE 4.6 mph - N/A   Scattered Clouds
12:53 AM 46.0 °F - 42.1 °F 86% 30.09 in 10.0 mi Calm Calm - N/A   Partly Cloudy
1:23 AM 44.6 °F - 42.8 °F 93% 30.08 in 10.0 mi Calm Calm - N/A   Mostly Cloudy
1:53 AM 46.0 °F - 43.0 °F 89% 30.08 in 10.0 mi Calm Calm - N/A   Overcast
2:53 AM 46.9 °F - 43.0 °F 86% 30.08 in 10.0 mi Calm Calm - N/A   Overcast
5:53 AM 45.0 °F - 39.9 °F 82% 30.09 in 10.0 mi Calm Calm - N/A   Partly Cloudy
6:18 AM 44.6 °F - 39.2 °F 81% 30.10 in 10.0 mi Calm Calm - N/A   Mostly Cloudy
6:53 AM 45.0 °F - 39.9 °F 82% 30.10 in 10.0 mi Calm Calm - N/A   Overcast
7:53 AM 46.9 °F - 39.9 °F 77% 30.11 in 10.0 mi Calm Calm - N/A   Overcast
8:53 AM 50.0 °F - 39.9 °F 68% 30.11 in 10.0 mi Calm Calm - N/A   Overcast
9:35 AM 51.8 °F - 39.2 °F 62% 30.10 in 10.0 mi Calm Calm - N/A   Scattered Clouds
9:53 AM 50.0 °F - 39.0 °F 66% 30.10 in 10.0 mi Calm Calm - N/A   Mostly Cloudy
10:39 AM 51.8 °F - 39.2 °F 62% 30.08 in 10.0 mi SW 4.6 mph - N/A   Scattered Clouds
10:53 AM 52.0 °F - 39.9 °F 63% 30.09 in 10.0 mi South 5.8 mph - N/A   Partly Cloudy
11:53 AM 53.1 °F - 41.0 °F 64% 30.07 in 10.0 mi SW 10.4 mph - N/A   Clear
12:53 PM 51.1 °F - 41.0 °F 68% 30.05 in 10.0 mi SW 11.5 mph - N/A   Mostly Cloudy
1:53 PM 52.0 °F - 42.1 °F 69% 30.04 in 10.0 mi SW 13.8 mph 21.9 mph N/A   Mostly Cloudy
2:53 PM 52.0 °F - 42.1 °F 69% 30.02 in 10.0 mi WSW 11.5 mph 19.6 mph N/A   Mostly Cloudy
3:53 PM 52.0 °F - 41.0 °F 66% 30.01 in 10.0 mi WSW 9.2 mph 18.4 mph N/A   Overcast
4:32 PM 51.8 °F - 42.8 °F 71% 30.00 in 10.0 mi SW 9.2 mph 18.4 mph N/A   Scattered Clouds
4:53 PM 51.1 °F - 42.1 °F 71% 29.99 in 10.0 mi Variable 3.5 mph - N/A   Partly Cloudy
5:53 PM 48.9 °F - 42.1 °F 77% 29.98 in 10.0 mi SSW 11.5 mph 18.4 mph N/A   Clear
6:53 PM 48.9 °F - 42.1 °F 77% 29.96 in 10.0 mi SW 4.6 mph - N/A   Clear
7:53 PM 48.9 °F - 41.0 °F 74% 29.96 in 10.0 mi Calm Calm - N/A   Clear
8:53 PM 50.0 °F - 41.0 °F 71% 29.96 in 10.0 mi SSE 6.9 mph - N/A   Clear
9:53 PM 48.9 °F - 37.9 °F 66% 29.97 in 10.0 mi South 4.6 mph - N/A   Overcast
10:53 PM 48.0 °F - 39.9 °F 74% 29.96 in 8.0 mi ESE 8.1 mph - 0.02 in Rain Rain
11:53 PM 48.0 °F - 41.0 °F 77% 29.96 in 10.0 mi SSE 4.6 mph - 0.02 in   Overcast